Погода в Филинской

Россия / Архангельская область     60°48′33″N   43°01′08″E
темп.,
°C
ветер,
м/с
пор.,
м/с
влажн.,
%
обл.,
%
осадки,
мм/ч
давл.,
гПа
погр.,
м
10 мая, пн
пн1000:00+3сз3992100 0.0 1017344
03:00+3сз31189100 0.0 1020429
06:00+4сз288730 0.0 1023275
09:00+9ссз35530 0.0 10251146
12:00+12ссз23355 0.0 10251759
15:00+14зсз123112 0.0 10261961
18:00+13юз123939 0.0 1026982
21:00+7ююз226054 0.0 102829
11 мая, вт
вт1100:00+5ююз257066 0.0 102877
03:00+7ююз2868100 0.0 1029186
06:00+8ююз31065100 0.0 1029332
09:00+14юз474748 0.0 1029635
12:00+18юз464414 0.0 10281178
15:00+17зюз3655100 0.0 1029542
18:00+16ююз266249 0.0 1029162
21:00+12ююз23824 0.0 102950
12 мая, ср
ср1200:00+11юз258832 0.0 103075
03:00+10юз229153 0.0 103124
06:00+13зюз137734 0.0 1031129
09:00+19ююз12535 0.0 1030589
12:00+23ю22413 0.0 10291305
15:00+24ю22400 0.0 10281566
18:00+22ююв24490 0.0 1027355
21:00+16ю22740 0.0 102735
13 мая, чт
чт1300:00+13ю22780 0.0 102827
03:00+11ю227499 0.0 102819
06:00+15ююв13665 0.0 1028113
09:00+20юв245621 0.0 1027519
12:00+24ююв454197 0.0 10252251
15:00+24ю463588 0.0 10242302
18:00+20ю275457 0.0 1023203
21:00+16юв23735 0.0 102250
14 мая, пт
пт1400:00+14ююв278224 0.0 1022132
03:00+13ю248780 0.0 102269
06:00+15ю2487100 1.0 1022165
09:00+16ю258492 1.7 1021338
12:00+22ююз465527 0.1 10191446
15:00+24юз4646100 0.1 10182202
18:00+21юз3662100 0.1 1017423
21:00+16ююз228636 0.1 101721